Location: Buenos Aires
(34.6076°S, 58.4371°W)
Time: 11:54:19
(UTC-03:00)

Envisat - Pass Details

Date: 29 June 2021
Orbit: 764 x 766 km, 98.2° (Epoch: 03 August)

Event Time Altitude Azimuth Distance (km) Brightness Sun altitude
Rises 19:45:06 0° 193° (SSW) 3,266 6.3 -22.3°
Reaches altitude 10° 19:49:09 10° 225° (SW) 2,328 5.9 -23.1°
Maximum altitude 19:50:45 11° 243° (WSW) 2,225 6.0 -23.5°
Drops below altitude 10° 19:52:21 10° 261° (W) 2,320 6.4 -23.8°
Sets 19:56:22 0° 293° (WNW) 3,235 7.6 -24.6°
